Meridian, MS

2:37 PM CDT on October 20, 2017 (GMT -0500)
Key

Weather History for KMEI - May, 2014

Change the Weather History Date:

Sunday, May 11, 2014

  Actual Average Record
Temperature  
Mean Temperature 77 °F 70 °F  
Max Temperature 87 °F 82 °F 92 °F (1955)
Min Temperature 67 °F 57 °F 43 °F (1952)
Degree Days  
Heating Degree Days 0 1  
Month to date heating degree days 12 12  
Since 1 July heating degree days 2856 2546  
Cooling Degree Days 12 5  
Month to date cooling degree days 50 47  
Year to date cooling degree days 118 130  
Growing Degree Days 26 (Base 50)    
Moisture  
Dew Point 69 °F    
Average Humidity 78    
Maximum Humidity 100    
Minimum Humidity 55    
Precipitation  
Precipitation 0.04 in 0.14 in 2.96 in (1915)
Month to date precipitation 1.14 1.60  
Year to date precipitation 30.26 22.53  
Sea Level Pressure  
Sea Level Pressure 30.04 in    
Wind  
Wind Speed 7 mph (SSE)    
Max Wind Speed 26 mph    
Max Gust Speed 33 mph    
Visibility 7 miles    
Events Rain    
T = Trace of Precipitation, MM = Missing Value Source: NWS Daily Summary

Daily Weather History Graph

Daily Weather History Graph

Search for Another Location

Airport or City:

Trip Planner

Search our weather history database for the weather conditions in past years. The results will help you decide how hot, cold, wet, or windy it might be!

Date:

Astronomy

May. 11, 2014 Rise Set
Actual Time 5:59 AM CDT 7:43 PM CDT
Civil Twilight 5:33 AM CDT 8:10 PM CDT
Nautical Twilight 5:01 AM CDT 8:42 PM CDT
Astronomical Twilight 4:27 AM CDT 9:16 PM CDT
Moon 4:49 PM CDT (5/11) 3:52 AM CDT (5/11)
Length of Visible Light 14h 36m
Length of Day
13h 43m
Waxing Gibbous, 89% of the Moon is Illuminated
May 11
Waxing Gibbous
May 14
Full
May 21
Last Quarter
May 28
New
Jun 5
First Quarter

Hourly Weather History & Observations

Time (CDT) Temp. Heat Index Dew Point Humidity Pressure Visibility Wind Dir Wind Speed Gust Speed Precip Events Conditions
12:10 AM 66.2 °F - 66.2 °F 100% 30.02 in 2.0 mi Calm Calm - N/A   Mostly Cloudy
12:18 AM 68.0 °F - 66.2 °F 94% 30.02 in 6.0 mi Calm Calm - N/A   Scattered Clouds
12:26 AM 68.0 °F - 66.2 °F 94% 30.02 in 8.0 mi Calm Calm - N/A   Partly Cloudy
12:45 AM 66.2 °F - 66.2 °F 100% 30.02 in 4.0 mi Calm Calm - N/A   Mostly Cloudy
12:58 AM 66.9 °F - 66.0 °F 97% 30.01 in 4.0 mi Calm Calm - N/A   Mostly Cloudy
1:58 AM 69.1 °F - 68.0 °F 96% 30.00 in 7.0 mi Calm Calm - N/A   Overcast
2:06 AM 69.8 °F - 68.0 °F 94% 30.01 in 7.0 mi Calm Calm - N/A   Overcast
2:58 AM 70.0 °F - 69.1 °F 97% 30.01 in 2.5 mi Calm Calm - N/A   Overcast
3:08 AM 69.8 °F - 69.8 °F 100% 30.02 in 1.2 mi Calm Calm - N/A   Overcast
3:58 AM 70.0 °F - 69.1 °F 97% 30.01 in 2.0 mi South 3.5 mph - N/A   Overcast
4:12 AM 69.8 °F - 69.8 °F 100% 30.02 in 4.0 mi SSE 4.6 mph - N/A   Overcast
4:31 AM 71.6 °F - 69.8 °F 94% 30.02 in 5.0 mi SSE 5.8 mph - N/A   Overcast
4:58 AM 71.1 °F - 69.1 °F 93% 30.02 in 5.0 mi SSE 6.9 mph - N/A   Overcast
5:34 AM 71.6 °F - 69.8 °F 94% 30.04 in 5.0 mi SE 4.6 mph - N/A   Overcast
5:46 AM 71.6 °F - 69.8 °F 94% 30.04 in 7.0 mi SE 4.6 mph - N/A   Overcast
5:58 AM 71.1 °F - 69.1 °F 93% 30.04 in 7.0 mi SE 4.6 mph - N/A   Overcast
6:22 AM 71.6 °F - 69.8 °F 94% 30.05 in 5.0 mi Calm Calm - N/A   Overcast
6:35 AM 71.6 °F - 69.8 °F 94% 30.06 in 6.0 mi Calm Calm - N/A   Overcast
6:58 AM 71.1 °F - 69.1 °F 93% 30.05 in 6.0 mi Calm Calm - N/A   Overcast
7:58 AM 73.0 °F - 71.1 °F 93% 30.08 in 6.0 mi SSE 6.9 mph - N/A   Overcast
8:18 AM 73.4 °F - 71.6 °F 94% 30.09 in 6.0 mi SSE 5.8 mph - N/A   Overcast
8:52 AM 75.2 °F - 71.6 °F 89% 30.09 in 7.0 mi South 6.9 mph - N/A   Scattered Clouds
8:58 AM 75.0 °F - 71.1 °F 87% 30.08 in 7.0 mi SSE 6.9 mph - N/A   Mostly Cloudy
9:06 AM 75.2 °F - 71.6 °F 89% 30.09 in 8.0 mi SSE 9.2 mph - N/A   Mostly Cloudy
9:48 AM 77.0 °F - 71.6 °F 83% 30.09 in 10.0 mi SSE 8.1 mph - N/A   Scattered Clouds
9:58 AM 77.0 °F - 71.1 °F 82% 30.08 in 10.0 mi SSE 11.5 mph - N/A   Mostly Cloudy
10:58 AM 79.0 °F - 70.0 °F 74% 30.07 in 10.0 mi South 9.2 mph - N/A   Mostly Cloudy
11:18 AM 80.6 °F 83.9 °F 69.8 °F 70% 30.08 in 10.0 mi South 15.0 mph 19.6 mph N/A   Mostly Cloudy
11:58 AM 82.0 °F 85.9 °F 70.0 °F 67% 30.07 in 10.0 mi SE 10.4 mph 18.4 mph N/A   Scattered Clouds
12:58 PM 84.9 °F 88.2 °F 68.0 °F 57% 30.04 in 10.0 mi South 10.4 mph - N/A   Partly Cloudy
1:58 PM 86.0 °F 89.4 °F 68.0 °F 55% 30.02 in 10.0 mi South 5.8 mph - N/A   Scattered Clouds
2:49 PM 84.2 °F 86.6 °F 66.2 °F 55% 30.03 in 10.0 mi South 18.4 mph 23.0 mph N/A   Scattered Clouds
2:58 PM 75.9 °F - 64.9 °F 69% 30.04 in 10.0 mi South 24.2 mph 33.4 mph 0.00 in Rain Light Rain
3:58 PM 73.0 °F - 68.0 °F 84% 30.01 in 10.0 mi ESE 4.6 mph - 0.04 in   Mostly Cloudy
4:58 PM 77.0 °F - 70.0 °F 79% 30.01 in 10.0 mi SSE 9.2 mph - N/A   Mostly Cloudy
5:58 PM 77.0 °F - 69.1 °F 76% 30.00 in 10.0 mi Calm Calm - N/A   Clear
6:58 PM 75.0 °F - 70.0 °F 84% 30.00 in 10.0 mi SE 3.5 mph - N/A   Clear
7:58 PM 75.0 °F - 69.1 °F 82% 30.01 in 10.0 mi SSE 6.9 mph - N/A   Clear
8:58 PM 75.0 °F - 70.0 °F 84% 30.02 in 10.0 mi SSE 5.8 mph - N/A   Clear
9:58 PM 73.9 °F - 69.1 °F 85% 30.03 in 10.0 mi SSE 5.8 mph - N/A   Clear
10:58 PM 73.0 °F - 68.0 °F 84% 30.04 in 10.0 mi SSE 8.1 mph - N/A   Clear
11:58 PM 73.0 °F - 68.0 °F 84% 30.03 in 10.0 mi South 8.1 mph - N/A   Clear